Burlington, VT

1:13 PM EST on November 13, 2019 (GMT -0500)
Burlington International

Weather History for KBTV - September, 2019

Change the Weather History Date:

Thursday, September 5, 2019

  Actual Average Record
Temperature  
Mean Temperature 63 °F 65 °F  
Max Temperature 72 °F 75 °F 93 °F (2018)
Min Temperature 53 °F 55 °F 37 °F (1963)
Degree Days  
Heating Degree Days 2 3  
Month to date heating degree days 6 12  
Since 1 July heating degree days 10 54  
Cooling Degree Days 0 3  
Month to date cooling degree days 5 15  
Year to date cooling degree days 585 463  
Growing Degree Days 12 (Base 50)    
Moisture  
Dew Point 47 °F    
Average Humidity 64    
Maximum Humidity 89    
Minimum Humidity 38    
Precipitation  
Precipitation 0.00 in 0.10 in 1.92 in (2011)
Month to date precipitation 1.48 0.54  
Year to date precipitation 27.77 24.61  
Snow  
Snow 0.00 in 0.00 in 0.00 in (2002)
Month to date snowfall 0.0 0.0  
Since 1 July snowfall 0.0 0.0  
Since 1 September snowfall 0.0 0.0  
Snow Depth 0.00 in    
Sea Level Pressure  
Sea Level Pressure 30.09 in    
Wind  
Wind Speed 3 mph (North)    
Max Wind Speed 9 mph    
Max Gust Speed 12 mph    
Visibility 10 miles    
Events      
T = Trace of Precipitation, MM = Missing Value Source: NWS Daily Summary

Daily Weather History Graph

Daily Weather History Graph

Search for Another Location

Airport or City:

Astronomy

Sep. 05, 2019 Rise Set
Actual Time 6:19 AM EDT 7:22 PM EDT
Civil Twilight 5:49 AM EDT 7:51 PM EDT
Nautical Twilight 5:14 AM EDT 8:27 PM EDT
Astronomical Twilight 4:36 AM EDT 9:04 PM EDT
Moon 1:39 PM EDT (9/5) 11:19 PM EDT (9/5)
Length of Visible Light 14h 02m
Length of Day
13h 02m
Waxing Crescent, 45% of the Moon is Illuminated
Sep 5
Waxing Crescent
Sep 5
First Quarter
Sep 14
Full
Sep 21
Last Quarter
Sep 28
New

Hourly Weather History & Observations

Time (EDT) Temp. Dew Point Humidity Pressure Visibility Wind Dir Wind Speed Gust Speed Precip Events Conditions
12:54 AM 61.0 °F - N/A% 30.05 in 10.0 mi NNE 3.5 mph - N/A   Overcast
1:54 AM 60.1 °F - N/A% 30.06 in 10.0 mi North 3.5 mph - N/A   Overcast
2:54 AM 59.0 °F - N/A% 30.06 in 10.0 mi Calm Calm - N/A   Mostly Cloudy
3:54 AM 57.0 °F - N/A% 30.06 in 10.0 mi Calm Calm - N/A   Mostly Cloudy
4:54 AM 57.0 °F - N/A% 30.08 in 10.0 mi Calm Calm - N/A   Mostly Cloudy
5:54 AM 55.9 °F 48.9 °F 77% 30.10 in 10.0 mi West 3.5 mph - N/A   Partly Cloudy
6:54 AM 54.0 °F 50.0 °F 86% 30.12 in 10.0 mi NNW 3.5 mph - N/A   Partly Cloudy
7:54 AM 57.0 °F 52.0 °F 83% 30.13 in 10.0 mi Calm Calm - N/A   Partly Cloudy
8:54 AM 60.1 °F 51.1 °F 72% 30.14 in 10.0 mi NNW 4.6 mph - N/A   Scattered Clouds
9:54 AM 62.1 °F 50.0 °F 65% 30.13 in 10.0 mi North 3.5 mph - N/A   Scattered Clouds
10:54 AM 63.0 °F 46.9 °F 56% 30.14 in 10.0 mi Calm Calm - N/A   Scattered Clouds
11:54 AM 66.0 °F 46.0 °F 48% 30.13 in 10.0 mi WNW 4.6 mph - N/A   Scattered Clouds
12:54 PM 68.0 °F 43.0 °F 40% 30.12 in 10.0 mi WNW 6.9 mph - N/A   Partly Cloudy
1:54 PM 69.1 °F 44.1 °F 40% 30.11 in 10.0 mi Variable 4.6 mph - N/A   Partly Cloudy
2:54 PM 71.1 °F 45.0 °F 39% 30.09 in 10.0 mi Variable 4.6 mph - N/A   Partly Cloudy
3:54 PM 72.0 °F 46.9 °F 41% 30.07 in 10.0 mi North 4.6 mph - N/A   Partly Cloudy
4:54 PM 72.0 °F 46.9 °F 41% 30.07 in 10.0 mi NNE 5.8 mph - N/A   Partly Cloudy
5:54 PM 71.1 °F 46.9 °F 42% 30.07 in 10.0 mi North 6.9 mph - N/A   Partly Cloudy
6:54 PM 68.0 °F 48.0 °F 49% 30.08 in 10.0 mi North 3.5 mph - N/A   Partly Cloudy
7:54 PM 64.9 °F 50.0 °F 58% 30.09 in 10.0 mi North 3.5 mph - N/A   Partly Cloudy
8:54 PM 61.0 °F 51.1 °F 70% 30.09 in 10.0 mi ENE 3.5 mph - N/A   Clear
9:54 PM 57.9 °F 52.0 °F 81% 30.09 in 10.0 mi Calm Calm - N/A   Clear
10:54 PM 55.9 °F 52.0 °F 87% 30.09 in 10.0 mi ENE 3.5 mph - N/A   Clear
11:54 PM 55.0 °F 51.1 °F 86% 30.09 in 10.0 mi Calm Calm - N/A   Clear